Time,TemperatureF,DewpointF,PressureIn,WindDirection,WindDirectionDegrees,WindSpeedMPH,WindSpeedGustMPH,Humidity,HourlyPrecipIn,Conditions,Clouds,dailyrainin,SoftwareType,DateUTC
2013-01-18 00:00:00,75.6,71.5,29.78,SE,126,0.0,0.0,87,0.00,BKN,,0.00,WeatherDisplay:10.37,2013-01-17 14:00:00,
2013-01-18 00:10:00,75.5,71.4,29.77,SE,126,0.0,1.0,87,0.00,BKN,,0.00,WeatherDisplay:10.37,2013-01-17 14:10:00,
2013-01-18 00:15:00,75.4,71.3,29.77,SE,126,0.0,1.0,87,0.00,BKN,,0.00,WeatherDisplay:10.37,2013-01-17 14:15:00,
2013-01-18 00:20:00,75.4,71.2,29.77,SE,126,0.0,0.0,87,0.00,BKN,,0.00,WeatherDisplay:10.37,2013-01-17 14:20:00,
2013-01-18 00:25:00,75.3,71.2,29.77,SE,126,0.0,0.0,87,0.00,BKN,,0.00,WeatherDisplay:10.37,2013-01-17 14:25:00,
2013-01-18 00:30:00,75.1,71.0,29.76,SE,126,0.0,0.0,87,0.00,BKN,,0.00,WeatherDisplay:10.37,2013-01-17 14:30:00,
2013-01-18 00:35:00,74.9,70.8,29.76,SE,126,0.0,0.0,87,0.00,BKN,,0.00,WeatherDisplay:10.37,2013-01-17 14:35:00,
2013-01-18 00:40:00,74.7,70.9,29.76,SE,126,0.0,0.0,88,0.00,BKN,,0.00,WeatherDisplay:10.37,2013-01-17 14:40:00,
2013-01-18 00:45:00,74.5,70.7,29.76,SE,126,0.0,0.0,88,0.00,BKN,,0.00,WeatherDisplay:10.37,2013-01-17 14:45:00,
2013-01-18 00:55:00,74.2,70.4,29.75,SE,126,0.0,0.0,88,0.00,BKN,,0.00,WeatherDisplay:10.37,2013-01-17 14:55:00,
2013-01-18 01:00:00,74.0,70.2,29.75,SE,126,0.0,0.0,88,0.00,BKN,,0.00,WeatherDisplay:10.37,2013-01-17 15:00:00,
2013-01-18 01:10:00,73.7,70.2,29.75,SE,126,0.0,1.0,89,0.00,BKN,,0.00,WeatherDisplay:10.37,2013-01-17 15:10:00,
2013-01-18 01:15:00,73.5,70.1,29.75,SE,126,0.0,0.0,89,0.00,BKN,,0.00,WeatherDisplay:10.37,2013-01-17 15:15:00,
2013-01-18 01:20:00,73.4,69.9,29.75,SE,126,0.0,0.0,89,0.00,BKN,,0.00,WeatherDisplay:10.37,2013-01-17 15:20:00,
2013-01-18 01:25:00,73.2,69.8,29.75,SE,126,0.0,0.0,89,0.00,BKN,,0.00,WeatherDisplay:10.37,2013-01-17 15:25:00,
2013-01-18 01:30:00,73.1,69.6,29.74,SE,126,0.0,0.0,89,0.00,BKN,,0.00,WeatherDisplay:10.37,2013-01-17 15:30:00,
2013-01-18 01:35:00,73.0,69.6,29.74,SE,126,0.0,0.0,89,0.00,BKN,,0.00,WeatherDisplay:10.37,2013-01-17 15:35:00,
2013-01-18 01:40:00,72.9,69.8,29.74,SE,126,0.0,0.0,90,0.00,BKN,,0.00,WeatherDisplay:10.37,2013-01-17 15:40:00,
2013-01-18 01:45:00,72.7,69.6,29.74,SE,126,0.0,0.0,90,0.00,BKN,,0.00,WeatherDisplay:10.37,2013-01-17 15:45:00,
2013-01-18 01:50:00,72.6,69.5,29.74,SE,126,0.0,0.0,90,0.00,BKN,,0.00,WeatherDisplay:10.37,2013-01-17 15:50:00,
2013-01-18 01:55:00,72.5,69.4,29.74,SE,126,0.0,0.0,90,0.00,BKN,,0.00,WeatherDisplay:10.37,2013-01-17 15:55:00,
2013-01-18 02:00:00,72.4,69.3,29.73,SE,126,0.0,0.0,90,0.00,BKN,,0.00,WeatherDisplay:10.37,2013-01-17 16:00:00,
2013-01-18 02:10:00,72.5,69.4,29.74,SE,126,0.0,0.0,90,0.00,BKN,,0.00,WeatherDisplay:10.37,2013-01-17 16:10:00,
2013-01-18 02:15:00,72.4,69.3,29.74,SE,126,0.0,0.0,90,0.00,BKN,,0.00,WeatherDisplay:10.37,2013-01-17 16:15:00,
2013-01-18 02:20:00,72.4,69.3,29.73,SE,126,0.0,1.0,90,0.00,BKN,,0.00,WeatherDisplay:10.37,2013-01-17 16:20:00,
2013-01-18 02:25:00,72.4,69.6,29.73,SE,126,0.0,1.0,91,0.00,BKN,,0.00,WeatherDisplay:10.37,2013-01-17 16:25:00,
2013-01-18 02:30:00,72.6,69.8,29.73,SSE,156,0.0,2.0,91,0.00,BKN,,0.00,WeatherDisplay:10.37,2013-01-17 16:30:00,
2013-01-18 02:35:00,72.7,69.9,29.73,SW,215,0.0,2.0,91,0.00,BKN,,0.00,WeatherDisplay:10.37,2013-01-17 16:35:00,
2013-01-18 02:40:00,72.8,69.7,29.73,SW,230,0.0,3.0,90,0.00,BKN,,0.00,WeatherDisplay:10.37,2013-01-17 16:40:00,
2013-01-18 02:45:00,73.0,69.9,29.73,SW,231,0.0,1.0,90,0.00,BKN,,0.00,WeatherDisplay:10.37,2013-01-17 16:45:00,
2013-01-18 02:50:00,73.2,70.1,29.73,SW,231,0.0,1.0,90,0.00,BKN,,0.00,WeatherDisplay:10.37,2013-01-17 16:50:00,
2013-01-18 02:55:00,73.3,70.2,29.73,SW,231,0.0,1.0,90,0.00,BKN,,0.00,WeatherDisplay:10.37,2013-01-17 16:55:00,
2013-01-18 03:00:00,73.5,70.4,29.73,SW,230,0.0,2.0,90,0.00,BKN,,0.00,WeatherDisplay:10.37,2013-01-17 17:00:00,
2013-01-18 03:05:00,73.7,70.3,29.73,WSW,238,0.0,2.0,89,0.00,BKN,,0.00,WeatherDisplay:10.37,2013-01-17 17:05:00,
2013-01-18 03:10:00,73.8,70.4,29.73,WSW,248,0.0,2.0,89,0.00,BKN,,0.00,WeatherDisplay:10.37,2013-01-17 17:10:00,
2013-01-18 03:15:00,73.9,70.1,29.73,WSW,249,0.0,2.0,88,0.00,BKN,,0.00,WeatherDisplay:10.37,2013-01-17 17:15:00,
2013-01-18 03:20:00,74.0,70.3,29.73,WSW,249,0.0,4.0,88,0.00,BKN,,0.00,WeatherDisplay:10.37,2013-01-17 17:20:00,
2013-01-18 03:25:00,74.2,70.4,29.73,WSW,254,0.0,4.0,88,0.00,BKN,,0.00,WeatherDisplay:10.37,2013-01-17 17:25:00,
2013-01-18 03:30:00,74.3,70.5,29.73,WSW,239,0.0,2.0,88,0.00,BKN,,0.00,WeatherDisplay:10.37,2013-01-17 17:30:00,
2013-01-18 03:35:00,74.4,70.3,29.73,SW,233,0.0,3.0,87,0.00,BKN,,0.00,WeatherDisplay:10.37,2013-01-17 17:35:00,
2013-01-18 03:40:00,74.5,70.4,29.73,WSW,249,0.0,2.0,87,0.00,BKN,,0.00,WeatherDisplay:10.37,2013-01-17 17:40:00,
2013-01-18 03:45:00,74.5,70.4,29.73,WSW,249,0.0,1.0,87,0.00,BKN,,0.00,WeatherDisplay:10.37,2013-01-17 17:45:00,
2013-01-18 03:50:00,74.6,70.4,29.73,WSW,249,0.0,1.0,87,0.00,BKN,,0.00,WeatherDisplay:10.37,2013-01-17 17:50:00,
2013-01-18 03:55:00,74.5,70.4,29.73,WSW,249,0.0,2.0,87,0.00,BKN,,0.00,WeatherDisplay:10.37,2013-01-17 17:55:00,
2013-01-18 04:00:00,74.5,70.4,29.73,WSW,247,0.0,2.0,87,0.00,BKN,,0.00,WeatherDisplay:10.37,2013-01-17 18:00:00,
2013-01-18 04:10:00,74.5,70.4,29.73,WSW,244,1.0,4.0,87,0.00,BKN,,0.00,WeatherDisplay:10.37,2013-01-17 18:10:00,
2013-01-18 04:15:00,74.5,70.4,29.73,SW,235,0.0,4.0,87,0.00,BKN,,0.00,WeatherDisplay:10.37,2013-01-17 18:15:00,
2013-01-18 04:25:00,74.5,70.3,29.73,WSW,257,0.0,2.0,87,0.00,BKN,,0.00,WeatherDisplay:10.37,2013-01-17 18:25:00,
2013-01-18 04:30:00,74.4,70.3,29.73,WSW,257,0.0,2.0,87,0.00,BKN,,0.00,WeatherDisplay:10.37,2013-01-17 18:30:00,
2013-01-18 04:35:00,74.4,70.3,29.73,WSW,257,0.0,2.0,87,0.00,BKN,,0.00,WeatherDisplay:10.37,2013-01-17 18:35:00,
2013-01-18 04:40:00,74.3,70.2,29.74,West,262,0.0,4.0,87,0.00,BKN,,0.00,WeatherDisplay:10.37,2013-01-17 18:40:00,
2013-01-18 04:45:00,74.3,70.2,29.74,West,267,0.0,4.0,87,0.00,BKN,,0.00,WeatherDisplay:10.37,2013-01-17 18:45:00,
2013-01-18 04:50:00,74.3,70.2,29.74,West,265,0.0,2.0,87,0.00,BKN,,0.00,WeatherDisplay:10.37,2013-01-17 18:50:00,
2013-01-18 04:55:00,74.2,70.1,29.74,West,263,0.0,1.0,87,0.00,BKN,,0.00,WeatherDisplay:10.37,2013-01-17 18:55:00,
2013-01-18 05:00:00,74.2,70.4,29.74,West,262,0.0,1.0,88,0.00,BKN,,0.00,WeatherDisplay:10.37,2013-01-17 19:00:00,
2013-01-18 05:10:00,74.3,70.5,29.74,West,259,0.0,2.0,88,0.00,BKN,,0.00,WeatherDisplay:10.37,2013-01-17 19:10:00,
2013-01-18 05:15:00,74.3,70.5,29.75,WSW,258,0.0,2.0,88,0.00,BKN,,0.00,WeatherDisplay:10.37,2013-01-17 19:15:00,
2013-01-18 05:20:00,74.3,70.6,29.75,WSW,257,0.0,1.0,88,0.00,BKN,,0.00,WeatherDisplay:10.37,2013-01-17 19:20:00,
2013-01-18 05:25:00,74.4,70.3,29.75,WSW,256,0.0,2.0,87,0.00,BKN,,0.00,WeatherDisplay:10.37,2013-01-17 19:25:00,
2013-01-18 05:30:00,74.4,70.6,29.75,WSW,255,0.0,2.0,88,0.00,BKN,,0.00,WeatherDisplay:10.37,2013-01-17 19:30:00,
2013-01-18 05:35:00,74.3,70.5,29.75,WSW,256,0.0,3.0,88,0.00,BKN,,0.00,WeatherDisplay:10.37,2013-01-17 19:35:00,
2013-01-18 05:40:00,74.3,70.6,29.75,West,262,1.0,3.0,88,0.00,BKN,,0.00,WeatherDisplay:10.37,2013-01-17 19:40:00,
2013-01-18 05:45:00,74.3,70.5,29.76,WSW,251,0.0,3.0,88,0.00,BKN,,0.00,WeatherDisplay:10.37,2013-01-17 19:45:00,
2013-01-18 05:50:00,74.2,70.4,29.76,WSW,242,0.0,1.0,88,0.00,BKN,,0.00,WeatherDisplay:10.37,2013-01-17 19:50:00,
2013-01-18 05:55:00,74.2,70.4,29.76,WSW,247,0.0,2.0,88,0.00,BKN,,0.00,WeatherDisplay:10.37,2013-01-17 19:55:00,
2013-01-18 06:00:00,74.2,70.4,29.76,WSW,248,0.0,2.0,88,0.00,BKN,,0.00,WeatherDisplay:10.37,2013-01-17 20:00:00,
2013-01-18 06:05:00,74.1,70.3,29.76,WSW,248,0.0,2.0,88,0.00,BKN,,0.00,WeatherDisplay:10.37,2013-01-17 20:05:00,
2013-01-18 06:10:00,74.1,70.3,29.77,SSW,209,0.0,3.0,88,0.00,BKN,,0.00,WeatherDisplay:10.37,2013-01-17 20:10:00,
2013-01-18 06:15:00,74.1,70.3,29.77,SSW,197,0.0,2.0,88,0.00,BKN,,0.00,WeatherDisplay:10.37,2013-01-17 20:15:00,
2013-01-18 06:20:00,74.2,70.7,29.77,SW,226,0.0,2.0,89,0.00,BKN,,0.00,WeatherDisplay:10.37,2013-01-17 20:20:00,
2013-01-18 06:25:00,74.1,70.6,29.77,SW,231,0.0,2.0,89,0.00,BKN,,0.00,WeatherDisplay:10.37,2013-01-17 20:25:00,
2013-01-18 06:30:00,74.0,70.6,29.78,SW,229,0.0,1.0,89,0.00,BKN,,0.00,WeatherDisplay:10.37,2013-01-17 20:30:00,
2013-01-18 06:35:00,74.0,70.6,29.78,SW,228,0.0,3.0,89,0.00,BKN,,0.00,WeatherDisplay:10.37,2013-01-17 20:35:00,
2013-01-18 06:40:00,74.0,70.6,29.78,SW,232,0.0,1.0,89,0.00,SCT,,0.00,WeatherDisplay:10.37,2013-01-17 20:40:00,
2013-01-18 06:45:00,74.0,70.2,29.79,SW,234,0.0,1.0,88,0.00,SCT,,0.00,WeatherDisplay:10.37,2013-01-17 20:45:00,
2013-01-18 06:50:00,73.9,70.1,29.79,WSW,244,0.0,3.0,88,0.00,SCT,,0.00,WeatherDisplay:10.37,2013-01-17 20:50:00,
2013-01-18 06:55:00,74.0,70.6,29.79,West,262,0.0,2.0,89,0.00,SCT,,0.00,WeatherDisplay:10.37,2013-01-17 20:55:00,
2013-01-18 07:00:00,74.1,70.6,29.80,West,268,0.0,0.0,89,0.01,RA,,0.01,WeatherDisplay:10.37,2013-01-17 21:00:00,
2013-01-18 07:05:00,74.2,70.8,29.80,West,268,0.0,1.0,89,0.00,RA,,0.01,WeatherDisplay:10.37,2013-01-17 21:05:00,
2013-01-18 07:10:00,74.4,71.0,29.80,West,268,0.0,0.0,89,0.00,RA,,0.01,WeatherDisplay:10.37,2013-01-17 21:10:00,
2013-01-18 07:15:00,74.6,71.1,29.80,West,268,0.0,0.0,89,0.00,RA,,0.01,WeatherDisplay:10.37,2013-01-17 21:15:00,
2013-01-18 07:20:00,74.8,71.6,29.80,West,268,0.0,0.0,90,0.00,RA,,0.01,WeatherDisplay:10.37,2013-01-17 21:20:00,
2013-01-18 07:25:00,74.9,71.8,29.80,West,268,0.0,0.0,90,0.00,RA,,0.01,WeatherDisplay:10.37,2013-01-17 21:25:00,
2013-01-18 07:30:00,75.2,71.7,29.80,West,268,0.0,1.0,89,0.00,RA,,0.01,WeatherDisplay:10.37,2013-01-17 21:30:00,
2013-01-18 07:35:00,75.5,72.1,29.80,West,268,0.0,0.0,89,0.00,RA,,0.01,WeatherDisplay:10.37,2013-01-17 21:35:00,
2013-01-18 07:40:00,76.0,72.5,29.80,West,268,0.0,1.0,89,0.00,RA,,0.01,WeatherDisplay:10.37,2013-01-17 21:40:00,
2013-01-18 07:45:00,76.5,73.0,29.81,West,268,0.0,1.0,89,0.00,RA,,0.01,WeatherDisplay:10.37,2013-01-17 21:45:00,
2013-01-18 07:50:00,77.0,73.2,29.81,West,268,0.0,1.0,88,0.00,RA,,0.01,WeatherDisplay:10.37,2013-01-17 21:50:00,
2013-01-18 07:55:00,77.6,73.8,29.81,West,268,0.0,2.0,88,0.00,RA,,0.01,WeatherDisplay:10.37,2013-01-17 21:55:00,
2013-01-18 08:00:00,78.1,73.9,29.81,West,268,0.0,0.0,87,0.00,RA,,0.01,WeatherDisplay:10.37,2013-01-17 22:00:00,
2013-01-18 08:10:00,79.1,74.6,29.81,West,268,0.0,0.0,86,0.00,RA,,0.01,WeatherDisplay:10.37,2013-01-17 22:10:00,
2013-01-18 08:15:00,79.5,74.2,29.82,West,268,0.0,0.0,84,0.00,RA,,0.01,WeatherDisplay:10.37,2013-01-17 22:15:00,
2013-01-18 08:20:00,79.8,73.8,29.82,West,268,0.0,1.0,82,0.00,RA,,0.01,WeatherDisplay:10.37,2013-01-17 22:20:00,
2013-01-18 08:25:00,80.2,73.1,29.82,West,268,0.0,0.0,79,0.00,RA,,0.01,WeatherDisplay:10.37,2013-01-17 22:25:00,
2013-01-18 08:30:00,80.8,74.1,29.82,West,268,0.0,1.0,80,0.00,RA,,0.01,WeatherDisplay:10.37,2013-01-17 22:30:00,
2013-01-18 08:35:00,81.6,74.4,29.82,West,268,1.0,2.0,79,0.00,RA,,0.01,WeatherDisplay:10.37,2013-01-17 22:35:00,
2013-01-18 08:40:00,82.1,74.5,29.82,West,268,0.0,2.0,78,0.00,RA,,0.01,WeatherDisplay:10.37,2013-01-17 22:40:00,
2013-01-18 08:45:00,82.4,74.5,29.82,SSW,212,1.0,3.0,77,0.00,RA,,0.01,WeatherDisplay:10.37,2013-01-17 22:45:00,
2013-01-18 08:50:00,82.6,74.7,29.82,South,175,0.0,2.0,77,0.00,RA,,0.01,WeatherDisplay:10.37,2013-01-17 22:50:00,
2013-01-18 09:00:00,82.5,74.6,29.81,South,174,1.0,3.0,77,0.00,RA,,0.01,WeatherDisplay:10.37,2013-01-17 23:00:00,
2013-01-18 09:10:00,82.7,74.4,29.82,SSE,167,1.0,2.0,76,0.00,RA,,0.01,WeatherDisplay:10.37,2013-01-17 23:10:00,
2013-01-18 09:15:00,82.8,74.5,29.81,SSE,162,1.0,3.0,76,0.00,RA,,0.01,WeatherDisplay:10.37,2013-01-17 23:15:00,
2013-01-18 09:20:00,83.0,75.0,29.81,SSE,156,0.0,2.0,77,0.00,RA,,0.01,WeatherDisplay:10.37,2013-01-17 23:20:00,
2013-01-18 09:25:00,83.4,74.6,29.82,SSE,151,0.0,3.0,75,0.00,RA,,0.01,WeatherDisplay:10.37,2013-01-17 23:25:00,
2013-01-18 09:30:00,83.8,74.6,29.82,SSE,148,0.0,2.0,74,0.00,RA,,0.01,WeatherDisplay:10.37,2013-01-17 23:30:00,
2013-01-18 09:35:00,84.1,74.5,29.82,SE,143,1.0,3.0,73,0.00,RA,,0.01,WeatherDisplay:10.37,2013-01-17 23:35:00,
2013-01-18 09:40:00,84.2,74.6,29.82,SE,136,1.0,3.0,73,0.00,RA,,0.01,WeatherDisplay:10.37,2013-01-17 23:40:00,
2013-01-18 09:50:00,82.7,75.5,29.82,NE,51,7.0,12.0,79,0.00,RA,,0.01,WeatherDisplay:10.37,2013-01-17 23:50:00,
2013-01-18 09:55:00,81.6,75.2,29.82,NE,38,5.0,9.0,81,0.00,RA,,0.01,WeatherDisplay:10.37,2013-01-17 23:55:00,
2013-01-18 10:00:00,81.5,74.4,29.82,NE,36,1.0,5.0,79,0.00,RA,,0.01,WeatherDisplay:10.37,2013-01-18 00:00:00,
2013-01-18 10:05:00,82.0,75.3,29.82,NE,38,1.0,4.0,80,0.00,RA,,0.01,WeatherDisplay:10.37,2013-01-18 00:05:00,
2013-01-18 10:10:00,82.6,74.6,29.81,NE,42,1.0,3.0,77,0.00,RA,,0.01,WeatherDisplay:10.37,2013-01-18 00:10:00,
2013-01-18 10:15:00,82.9,74.6,29.81,NE,41,0.0,2.0,76,0.00,RA,,0.01,WeatherDisplay:10.37,2013-01-18 00:15:00,
2013-01-18 10:20:00,83.3,74.6,29.81,NE,41,1.0,3.0,75,0.00,RA,,0.01,WeatherDisplay:10.37,2013-01-18 00:20:00,
2013-01-18 10:25:00,84.0,76.0,29.81,NE,42,1.0,3.0,77,0.00,RA,,0.01,WeatherDisplay:10.37,2013-01-18 00:25:00,
2013-01-18 10:30:00,84.7,76.7,29.81,NE,51,0.0,4.0,77,0.00,RA,,0.01,WeatherDisplay:10.37,2013-01-18 00:30:00,
2013-01-18 10:35:00,85.2,76.8,29.80,ENE,62,0.0,2.0,76,0.00,RA,,0.01,WeatherDisplay:10.37,2013-01-18 00:35:00,
2013-01-18 10:40:00,85.7,76.9,29.80,ENE,68,0.0,2.0,75,0.00,RA,,0.01,WeatherDisplay:10.37,2013-01-18 00:40:00,
2013-01-18 10:45:00,86.5,76.8,29.80,ENE,70,0.0,1.0,73,0.00,RA,,0.01,WeatherDisplay:10.37,2013-01-18 00:45:00,
2013-01-18 10:50:00,87.2,76.7,29.80,ENE,70,0.0,2.0,71,0.00,RA,,0.01,WeatherDisplay:10.37,2013-01-18 00:50:00,
2013-01-18 10:55:00,87.9,77.3,29.79,ENE,70,0.0,2.0,71,0.00,RA,,0.01,WeatherDisplay:10.37,2013-01-18 00:55:00,
2013-01-18 11:00:00,88.6,77.5,29.79,ENE,70,0.0,2.0,70,0.00,RA,,0.01,WeatherDisplay:10.37,2013-01-18 01:00:00,
2013-01-18 11:05:00,89.1,78.0,29.79,ENE,70,0.0,3.0,70,0.00,RA,,0.01,WeatherDisplay:10.37,2013-01-18 01:05:00,
2013-01-18 11:10:00,89.2,77.3,29.79,ENE,70,0.0,2.0,68,0.00,RA,,0.01,WeatherDisplay:10.37,2013-01-18 01:10:00,
2013-01-18 11:15:00,89.1,76.2,29.79,ENE,70,2.0,3.0,66,0.00,RA,,0.01,WeatherDisplay:10.37,2013-01-18 01:15:00,
2013-01-18 11:20:00,88.6,76.2,29.79,ENE,69,1.0,3.0,67,0.00,RA,,0.01,WeatherDisplay:10.37,2013-01-18 01:20:00,
2013-01-18 11:25:00,88.3,76.4,29.79,ENE,69,1.0,3.0,68,0.00,RA,,0.01,WeatherDisplay:10.37,2013-01-18 01:25:00,
2013-01-18 11:30:00,88.1,77.1,29.78,ENE,69,0.0,1.0,70,0.00,RA,,0.01,WeatherDisplay:10.37,2013-01-18 01:30:00,
2013-01-18 11:35:00,88.1,75.8,29.78,ENE,69,0.0,2.0,67,0.00,RA,,0.01,WeatherDisplay:10.37,2013-01-18 01:35:00,
2013-01-18 11:40:00,88.0,75.7,29.78,ENE,69,0.0,2.0,67,0.00,RA,,0.01,WeatherDisplay:10.37,2013-01-18 01:40:00,
2013-01-18 11:45:00,87.4,76.0,29.78,ENE,69,0.0,2.0,69,0.00,RA,,0.01,WeatherDisplay:10.37,2013-01-18 01:45:00,
2013-01-18 11:50:00,87.1,75.7,29.78,ENE,69,0.0,2.0,69,0.00,RA,,0.01,WeatherDisplay:10.37,2013-01-18 01:50:00,
2013-01-18 11:55:00,87.1,76.1,29.77,ENE,69,0.0,2.0,70,0.00,RA,,0.01,WeatherDisplay:10.37,2013-01-18 01:55:00,
2013-01-18 12:00:00,86.6,75.2,29.77,ENE,70,0.0,2.0,69,0.00,RA,,0.01,WeatherDisplay:10.37,2013-01-18 02:00:00,
2013-01-18 12:10:00,86.4,75.9,29.77,ENE,70,0.0,3.0,71,0.00,RA,,0.01,WeatherDisplay:10.37,2013-01-18 02:10:00,
2013-01-18 12:15:00,86.4,75.9,29.77,ENE,70,1.0,3.0,71,0.00,RA,,0.01,WeatherDisplay:10.37,2013-01-18 02:15:00,
2013-01-18 12:20:00,86.3,76.2,29.77,ENE,70,1.0,3.0,72,0.00,RA,,0.01,WeatherDisplay:10.37,2013-01-18 02:20:00,
2013-01-18 12:25:00,86.3,77.0,29.77,ENE,70,0.0,3.0,74,0.00,RA,,0.01,WeatherDisplay:10.37,2013-01-18 02:25:00,
2013-01-18 12:30:00,86.6,77.8,29.76,East,87,0.0,3.0,75,0.00,RA,,0.01,WeatherDisplay:10.37,2013-01-18 02:30:00,
2013-01-18 12:35:00,87.4,77.3,29.76,East,99,1.0,2.0,72,0.00,RA,,0.01,WeatherDisplay:10.37,2013-01-18 02:35:00,
2013-01-18 12:40:00,88.1,77.5,29.75,East,98,0.0,2.0,71,0.00,RA,,0.01,WeatherDisplay:10.37,2013-01-18 02:40:00,
2013-01-18 12:45:00,88.9,78.7,29.75,East,97,0.0,1.0,72,0.00,RA,,0.01,WeatherDisplay:10.37,2013-01-18 02:45:00,
2013-01-18 12:50:00,89.5,78.4,29.75,East,96,0.0,2.0,70,0.00,RA,,0.01,WeatherDisplay:10.37,2013-01-18 02:50:00,
2013-01-18 12:55:00,89.8,76.9,29.75,East,95,1.0,4.0,66,0.00,RA,,0.01,WeatherDisplay:10.37,2013-01-18 02:55:00,
2013-01-18 13:00:00,89.8,78.2,29.75,East,95,1.0,3.0,69,0.00,RA,,0.01,WeatherDisplay:10.37,2013-01-18 03:00:00,
2013-01-18 13:10:00,88.6,75.8,29.74,ESE,102,1.0,6.0,66,0.00,RA,,0.01,WeatherDisplay:10.37,2013-01-18 03:10:00,
2013-01-18 13:15:00,88.0,76.9,29.74,ESE,105,6.0,7.0,70,0.00,RA,,0.01,WeatherDisplay:10.37,2013-01-18 03:15:00,
2013-01-18 13:20:00,87.2,77.1,29.74,ESE,103,6.0,10.0,72,0.00,RA,,0.01,WeatherDisplay:10.37,2013-01-18 03:20:00,
2013-01-18 13:25:00,86.3,76.6,29.74,ESE,107,3.0,6.0,73,0.00,RA,,0.01,WeatherDisplay:10.37,2013-01-18 03:25:00,
2013-01-18 13:30:00,85.5,76.7,29.73,ESE,105,2.0,12.0,75,0.00,RA,,0.01,WeatherDisplay:10.37,2013-01-18 03:30:00,
2013-01-18 13:35:00,85.7,77.2,29.73,ESE,102,3.0,10.0,76,0.00,RA,,0.01,WeatherDisplay:10.37,2013-01-18 03:35:00,
2013-01-18 13:40:00,85.4,76.2,29.73,ESE,104,7.0,9.0,74,0.00,RA,,0.01,WeatherDisplay:10.37,2013-01-18 03:40:00,
2013-01-18 13:45:00,85.6,77.1,29.73,ESE,102,3.0,9.0,76,0.00,RA,,0.01,WeatherDisplay:10.37,2013-01-18 03:45:00,
2013-01-18 13:50:00,85.7,76.9,29.73,East,100,3.0,10.0,75,0.00,RA,,0.01,WeatherDisplay:10.37,2013-01-18 03:50:00,
2013-01-18 13:55:00,86.5,78.0,29.73,East,100,0.0,6.0,76,0.00,RA,,0.01,WeatherDisplay:10.37,2013-01-18 03:55:00,
2013-01-18 14:00:00,87.8,78.1,29.72,ESE,102,2.0,6.0,73,0.00,RA,,0.01,WeatherDisplay:10.37,2013-01-18 04:00:00,
2013-01-18 14:05:00,88.6,78.0,29.72,East,100,2.0,6.0,71,0.00,RA,,0.01,WeatherDisplay:10.37,2013-01-18 04:05:00,
2013-01-18 14:10:00,88.7,78.0,29.71,East,100,1.0,7.0,71,0.00,RA,,0.01,WeatherDisplay:10.37,2013-01-18 04:10:00,
2013-01-18 14:15:00,88.0,76.9,29.71,East,98,5.0,9.0,70,0.00,RA,,0.01,WeatherDisplay:10.37,2013-01-18 04:15:00,
2013-01-18 14:20:00,87.3,76.8,29.71,East,97,3.0,6.0,71,0.00,RA,,0.01,WeatherDisplay:10.37,2013-01-18 04:20:00,
2013-01-18 14:25:00,87.3,77.5,29.71,East,101,1.0,6.0,73,0.00,RA,,0.01,WeatherDisplay:10.37,2013-01-18 04:25:00,
2013-01-18 14:30:00,87.5,77.7,29.71,ESE,109,0.0,3.0,73,0.00,RA,,0.01,WeatherDisplay:10.37,2013-01-18 04:30:00,
2013-01-18 14:35:00,87.8,77.6,29.71,East,90,0.0,3.0,72,0.00,RA,,0.01,WeatherDisplay:10.37,2013-01-18 04:35:00,
2013-01-18 14:40:00,87.9,77.7,29.70,East,80,1.0,2.0,72,0.00,RA,,0.01,WeatherDisplay:10.37,2013-01-18 04:40:00,
2013-01-18 14:45:00,87.9,77.8,29.70,East,96,1.0,4.0,72,0.00,RA,,0.01,WeatherDisplay:10.37,2013-01-18 04:45:00,
2013-01-18 14:50:00,88.0,77.4,29.70,ESE,106,3.0,6.0,71,0.00,RA,,0.01,WeatherDisplay:10.37,2013-01-18 04:50:00,
2013-01-18 14:55:00,88.1,77.5,29.70,ESE,111,1.0,9.0,71,0.00,RA,,0.01,WeatherDisplay:10.37,2013-01-18 04:55:00,
2013-01-18 15:00:00,88.0,77.4,29.70,ESE,106,3.0,7.0,71,0.00,RA,,0.01,WeatherDisplay:10.37,2013-01-18 05:00:00,
2013-01-18 15:10:00,87.2,76.6,29.70,East,97,3.0,7.0,71,0.00,RA,,0.01,WeatherDisplay:10.37,2013-01-18 05:10:00,
2013-01-18 15:15:00,86.9,76.3,29.70,East,101,2.0,10.0,71,0.00,RA,,0.01,WeatherDisplay:10.37,2013-01-18 05:15:00,
2013-01-18 15:20:00,86.4,76.3,29.70,East,97,5.0,9.0,72,0.00,RA,,0.01,WeatherDisplay:10.37,2013-01-18 05:20:00,
2013-01-18 15:25:00,86.3,77.0,29.70,East,97,2.0,7.0,74,0.00,RA,,0.01,WeatherDisplay:10.37,2013-01-18 05:25:00,
2013-01-18 15:30:00,86.2,76.9,29.70,ESE,113,1.0,5.0,74,0.00,RA,,0.01,WeatherDisplay:10.37,2013-01-18 05:30:00,
2013-01-18 15:40:00,86.6,76.1,29.70,ENE,68,1.0,4.0,71,0.00,RA,,0.01,WeatherDisplay:10.37,2013-01-18 05:40:00,
2013-01-18 15:45:00,86.8,76.7,29.70,ENE,72,0.0,2.0,72,0.00,RA,,0.01,WeatherDisplay:10.37,2013-01-18 05:45:00,
2013-01-18 15:50:00,87.1,77.0,29.70,East,85,0.0,3.0,72,0.00,RA,,0.01,WeatherDisplay:10.37,2013-01-18 05:50:00,
2013-01-18 15:55:00,87.2,77.0,29.70,ENE,68,0.0,3.0,72,0.00,RA,,0.01,WeatherDisplay:10.37,2013-01-18 05:55:00,
2013-01-18 16:00:00,86.9,76.8,29.70,East,84,1.0,4.0,72,0.00,RA,,0.01,WeatherDisplay:10.37,2013-01-18 06:00:00,
2013-01-18 16:05:00,86.7,76.6,29.70,East,101,0.0,4.0,72,0.00,RA,,0.01,WeatherDisplay:10.37,2013-01-18 06:05:00,
2013-01-18 16:10:00,86.5,76.4,29.70,East,96,0.0,3.0,72,0.00,RA,,0.01,WeatherDisplay:10.37,2013-01-18 06:10:00,
2013-01-18 16:15:00,86.4,76.3,29.70,East,98,0.0,4.0,72,0.00,RA,,0.01,WeatherDisplay:10.37,2013-01-18 06:15:00,
2013-01-18 16:25:00,85.9,76.6,29.70,East,98,1.0,5.0,74,0.00,RA,,0.01,WeatherDisplay:10.37,2013-01-18 06:25:00,
2013-01-18 16:30:00,85.7,76.1,29.70,East,98,1.0,5.0,73,0.00,RA,,0.01,WeatherDisplay:10.37,2013-01-18 06:30:00,
2013-01-18 16:40:00,85.5,76.3,29.70,East,95,0.0,6.0,74,0.00,RA,,0.01,WeatherDisplay:10.37,2013-01-18 06:40:00,
2013-01-18 16:45:00,85.3,76.1,29.71,East,95,0.0,6.0,74,0.00,RA,,0.01,WeatherDisplay:10.37,2013-01-18 06:45:00,
2013-01-18 16:50:00,85.2,76.4,29.71,East,96,1.0,5.0,75,0.00,RA,,0.01,WeatherDisplay:10.37,2013-01-18 06:50:00,
2013-01-18 16:55:00,85.1,76.2,29.71,ESE,104,0.0,3.0,75,0.00,RA,,0.01,WeatherDisplay:10.37,2013-01-18 06:55:00,
2013-01-18 17:00:00,84.9,76.1,29.71,ESE,108,0.0,2.0,75,0.00,RA,,0.01,WeatherDisplay:10.37,2013-01-18 07:00:00,
2013-01-18 17:10:00,84.8,76.4,29.71,East,97,0.0,2.0,76,0.00,RA,,0.01,WeatherDisplay:10.37,2013-01-18 07:10:00,
2013-01-18 17:15:00,84.6,75.8,29.72,East,95,1.0,6.0,75,0.00,RA,,0.01,WeatherDisplay:10.37,2013-01-18 07:15:00,
2013-01-18 17:20:00,84.4,76.0,29.72,East,99,2.0,5.0,76,0.00,RA,,0.01,WeatherDisplay:10.37,2013-01-18 07:20:00,
2013-01-18 17:25:00,84.3,75.9,29.72,East,99,2.0,6.0,76,0.00,RA,,0.01,WeatherDisplay:10.37,2013-01-18 07:25:00,
2013-01-18 17:30:00,84.2,75.8,29.72,East,100,0.0,4.0,76,0.00,RA,,0.01,WeatherDisplay:10.37,2013-01-18 07:30:00,
2013-01-18 17:35:00,84.2,75.8,29.72,East,89,0.0,1.0,76,0.00,RA,,0.01,WeatherDisplay:10.37,2013-01-18 07:35:00,
2013-01-18 17:40:00,84.1,75.7,29.73,East,90,0.0,5.0,76,0.00,RA,,0.01,WeatherDisplay:10.37,2013-01-18 07:40:00,
2013-01-18 17:45:00,84.1,76.1,29.73,East,101,1.0,3.0,77,0.00,RA,,0.01,WeatherDisplay:10.37,2013-01-18 07:45:00,
2013-01-18 17:50:00,84.1,76.1,29.73,ESE,102,2.0,4.0,77,0.00,RA,,0.01,WeatherDisplay:10.37,2013-01-18 07:50:00,
2013-01-18 17:55:00,83.8,75.4,29.73,ESE,104,0.0,6.0,76,0.00,RA,,0.01,WeatherDisplay:10.37,2013-01-18 07:55:00,
2013-01-18 18:00:00,83.6,75.3,29.73,ESE,105,2.0,5.0,76,0.00,RA,,0.01,WeatherDisplay:10.37,2013-01-18 08:00:00,
2013-01-18 18:05:00,83.5,75.5,29.73,ESE,104,1.0,6.0,77,0.00,RA,,0.01,WeatherDisplay:10.37,2013-01-18 08:05:00,
2013-01-18 18:10:00,83.5,75.5,29.74,ESE,105,0.0,5.0,77,0.00,RA,,0.01,WeatherDisplay:10.37,2013-01-18 08:10:00,
2013-01-18 18:15:00,83.5,75.5,29.74,ESE,105,0.0,3.0,77,0.00,RA,,0.01,WeatherDisplay:10.37,2013-01-18 08:15:00,
2013-01-18 18:20:00,83.5,75.5,29.74,ESE,105,0.0,1.0,77,0.00,RA,,0.01,WeatherDisplay:10.37,2013-01-18 08:20:00,
2013-01-18 18:25:00,83.4,75.1,29.74,ESE,106,0.0,2.0,76,0.00,RA,,0.01,WeatherDisplay:10.37,2013-01-18 08:25:00,
2013-01-18 18:30:00,83.4,75.0,29.74,ESE,106,0.0,3.0,76,0.00,RA,,0.01,WeatherDisplay:10.37,2013-01-18 08:30:00,
2013-01-18 18:35:00,83.4,75.4,29.74,ESE,106,0.0,2.0,77,0.00,RA,,0.01,WeatherDisplay:10.37,2013-01-18 08:35:00,
2013-01-18 18:40:00,83.5,75.5,29.74,ESE,106,0.0,1.0,77,0.00,RA,,0.01,WeatherDisplay:10.37,2013-01-18 08:40:00,
2013-01-18 18:45:00,83.4,75.4,29.74,ESE,112,0.0,6.0,77,0.00,RA,,0.01,WeatherDisplay:10.37,2013-01-18 08:45:00,
2013-01-18 18:50:00,83.3,75.3,29.74,ESE,118,0.0,1.0,77,0.00,RA,,0.01,WeatherDisplay:10.37,2013-01-18 08:50:00,
2013-01-18 18:55:00,83.2,75.3,29.75,ESE,118,0.0,2.0,77,0.00,RA,,0.01,WeatherDisplay:10.37,2013-01-18 08:55:00,
2013-01-18 19:00:00,83.2,75.6,29.75,ESE,115,2.0,5.0,78,0.00,RA,,0.01,WeatherDisplay:10.37,2013-01-18 09:00:00,
2013-01-18 19:10:00,83.2,75.6,29.75,ESE,108,0.0,4.0,78,0.00,RA,,0.01,WeatherDisplay:10.37,2013-01-18 09:10:00,
2013-01-18 19:15:00,83.2,76.0,29.75,ESE,106,0.0,1.0,79,0.00,RA,,0.01,WeatherDisplay:10.37,2013-01-18 09:15:00,
2013-01-18 19:20:00,83.0,75.4,29.75,ESE,106,0.0,3.0,78,0.00,RA,,0.01,WeatherDisplay:10.37,2013-01-18 09:20:00,
2013-01-18 19:25:00,82.8,75.2,29.75,ESE,106,0.0,2.0,78,0.00,RA,,0.01,WeatherDisplay:10.37,2013-01-18 09:25:00,
2013-01-18 19:30:00,82.7,75.6,29.75,ESE,106,0.0,4.0,79,0.00,RA,,0.01,WeatherDisplay:10.37,2013-01-18 09:30:00,
2013-01-18 19:35:00,82.8,76.0,29.75,ESE,108,2.0,6.0,80,0.00,RA,,0.01,WeatherDisplay:10.37,2013-01-18 09:35:00,
2013-01-18 19:40:00,82.9,76.1,29.75,East,96,0.0,5.0,80,0.00,RA,,0.01,WeatherDisplay:10.37,2013-01-18 09:40:00,
2013-01-18 19:45:00,82.8,75.6,29.75,East,86,0.0,1.0,79,0.00,RA,,0.01,WeatherDisplay:10.37,2013-01-18 09:45:00,
2013-01-18 19:50:00,82.8,75.6,29.75,East,83,0.0,2.0,79,0.00,RA,,0.01,WeatherDisplay:10.37,2013-01-18 09:50:00,
2013-01-18 19:55:00,82.8,75.6,29.75,East,84,1.0,3.0,79,0.00,RA,,0.01,WeatherDisplay:10.37,2013-01-18 09:55:00,
2013-01-18 20:00:00,82.8,75.6,29.75,East,87,0.0,2.0,79,0.00,RA,,0.01,WeatherDisplay:10.37,2013-01-18 10:00:00,
2013-01-18 20:05:00,82.9,76.8,29.76,ESE,116,5.0,10.0,82,0.00,RA,,0.01,WeatherDisplay:10.37,2013-01-18 10:05:00,
2013-01-18 20:10:00,82.7,77.0,29.76,ESE,115,6.0,9.0,83,0.00,RA,,0.01,WeatherDisplay:10.37,2013-01-18 10:10:00,
2013-01-18 20:15:00,82.1,76.4,29.76,ESE,103,8.0,12.0,83,0.00,RA,,0.01,WeatherDisplay:10.37,2013-01-18 10:15:00,
2013-01-18 20:20:00,81.7,76.4,29.76,ESE,104,6.0,12.0,84,0.00,RA,,0.01,WeatherDisplay:10.37,2013-01-18 10:20:00,
2013-01-18 20:25:00,81.4,75.0,29.77,ESE,109,1.0,8.0,81,0.00,RA,,0.01,WeatherDisplay:10.37,2013-01-18 10:25:00,
2013-01-18 20:30:00,81.6,75.2,29.77,ESE,109,3.0,5.0,81,0.00,RA,,0.01,WeatherDisplay:10.37,2013-01-18 10:30:00,
2013-01-18 20:35:00,81.7,75.0,29.76,ESE,108,2.0,5.0,80,0.00,RA,,0.01,WeatherDisplay:10.37,2013-01-18 10:35:00,
2013-01-18 20:40:00,82.0,75.2,29.76,ESE,106,1.0,5.0,80,0.00,RA,,0.01,WeatherDisplay:10.37,2013-01-18 10:40:00,
2013-01-18 20:45:00,82.1,74.9,29.76,ESE,104,0.0,1.0,79,0.00,RA,,0.01,WeatherDisplay:10.37,2013-01-18 10:45:00,
2013-01-18 20:50:00,82.1,74.9,29.77,East,101,0.0,2.0,79,0.00,RA,,0.01,WeatherDisplay:10.37,2013-01-18 10:50:00,
2013-01-18 20:55:00,82.3,75.5,29.77,East,99,0.0,1.0,80,0.00,RA,,0.01,WeatherDisplay:10.37,2013-01-18 10:55:00,
2013-01-18 21:00:00,82.5,76.8,29.77,East,95,1.0,3.0,83,0.00,RA,,0.01,WeatherDisplay:10.37,2013-01-18 11:00:00,
2013-01-18 21:10:00,81.9,76.6,29.77,ESE,117,2.0,6.0,84,0.00,RA,,0.01,WeatherDisplay:10.37,2013-01-18 11:10:00,
2013-01-18 21:15:00,81.4,76.0,29.77,SE,132,2.0,6.0,84,0.00,RA,,0.01,WeatherDisplay:10.37,2013-01-18 11:15:00,
2013-01-18 21:20:00,81.0,75.7,29.77,SE,135,2.0,6.0,84,0.00,RA,,0.01,WeatherDisplay:10.37,2013-01-18 11:20:00,
2013-01-18 21:25:00,80.7,75.4,29.77,SE,138,1.0,5.0,84,0.00,RA,,0.01,WeatherDisplay:10.37,2013-01-18 11:25:00,
2013-01-18 21:30:00,80.5,75.2,29.78,ESE,111,1.0,5.0,84,0.00,RA,,0.01,WeatherDisplay:10.37,2013-01-18 11:30:00,
2013-01-18 21:35:00,80.5,75.2,29.78,East,100,6.0,12.0,84,0.00,RA,,0.01,WeatherDisplay:10.37,2013-01-18 11:35:00,
2013-01-18 21:40:00,80.4,75.2,29.78,ESE,103,8.0,12.0,84,0.00,RA,,0.01,WeatherDisplay:10.37,2013-01-18 11:40:00,
2013-01-18 21:45:00,80.4,75.4,29.78,ESE,116,8.0,13.0,85,0.00,RA,,0.01,WeatherDisplay:10.37,2013-01-18 11:45:00,
2013-01-18 21:50:00,80.1,75.5,29.78,ESE,120,3.0,10.0,86,0.00,RA,,0.01,WeatherDisplay:10.37,2013-01-18 11:50:00,
2013-01-18 21:55:00,79.7,74.8,29.78,ESE,118,1.0,4.0,85,0.00,RA,,0.01,WeatherDisplay:10.37,2013-01-18 11:55:00,
2013-01-18 22:00:00,79.6,75.0,29.78,ESE,117,0.0,0.0,86,0.00,RA,,0.01,WeatherDisplay:10.37,2013-01-18 12:00:00,
2013-01-18 22:05:00,79.5,74.6,29.78,ESE,118,0.0,1.0,85,0.00,RA,,0.01,WeatherDisplay:10.37,2013-01-18 12:05:00,
2013-01-18 22:10:00,79.4,74.5,29.78,ESE,120,0.0,2.0,85,0.00,RA,,0.01,WeatherDisplay:10.37,2013-01-18 12:10:00,
2013-01-18 22:15:00,79.4,74.8,29.78,ESE,120,0.0,2.0,86,0.00,RA,,0.01,WeatherDisplay:10.37,2013-01-18 12:15:00,
2013-01-18 22:20:00,79.4,74.8,29.78,ESE,121,0.0,2.0,86,0.00,RA,,0.01,WeatherDisplay:10.37,2013-01-18 12:20:00,
2013-01-18 22:25:00,79.4,74.8,29.78,ESE,120,0.0,2.0,86,0.00,RA,,0.01,WeatherDisplay:10.37,2013-01-18 12:25:00,
2013-01-18 22:30:00,79.3,74.7,29.78,ESE,118,0.0,2.0,86,0.00,RA,,0.01,WeatherDisplay:10.37,2013-01-18 12:30:00,
2013-01-18 22:35:00,79.3,74.8,29.78,ESE,119,0.0,1.0,86,0.00,RA,,0.01,WeatherDisplay:10.37,2013-01-18 12:35:00,
2013-01-18 22:40:00,79.4,74.8,29.78,ESE,119,0.0,0.0,86,0.00,RA,,0.01,WeatherDisplay:10.37,2013-01-18 12:40:00,
2013-01-18 22:45:00,79.4,75.2,29.78,ESE,119,0.0,0.0,87,0.00,RA,,0.01,WeatherDisplay:10.37,2013-01-18 12:45:00,
2013-01-18 22:50:00,79.4,75.2,29.78,ESE,119,0.0,0.0,87,0.00,RA,,0.01,WeatherDisplay:10.37,2013-01-18 12:50:00,
2013-01-18 22:55:00,79.4,75.2,29.78,ESE,119,0.0,2.0,87,0.00,RA,,0.01,WeatherDisplay:10.37,2013-01-18 12:55:00,
2013-01-18 23:00:00,79.4,75.2,29.78,ESE,121,0.0,0.0,87,0.00,RA,,0.01,WeatherDisplay:10.37,2013-01-18 13:00:00,
2013-01-18 23:10:00,79.3,75.0,29.77,SSE,148,0.0,1.0,87,0.00,RA,,0.01,WeatherDisplay:10.37,2013-01-18 13:10:00,
2013-01-18 23:15:00,79.2,75.0,29.77,SW,219,0.0,2.0,87,0.00,RA,,0.01,WeatherDisplay:10.37,2013-01-18 13:15:00,
2013-01-18 23:20:00,79.1,74.9,29.78,SW,232,0.0,1.0,87,0.00,RA,,0.01,WeatherDisplay:10.37,2013-01-18 13:20:00,
2013-01-18 23:25:00,79.0,74.8,29.77,SW,231,0.0,0.0,87,0.00,RA,,0.01,WeatherDisplay:10.37,2013-01-18 13:25:00,
2013-01-18 23:30:00,78.9,74.7,29.77,SW,231,0.0,2.0,87,0.00,RA,,0.01,WeatherDisplay:10.37,2013-01-18 13:30:00,
2013-01-18 23:35:00,78.7,74.5,29.77,SW,235,0.0,2.0,87,0.00,RA,,0.01,WeatherDisplay:10.37,2013-01-18 13:35:00,
2013-01-18 23:45:00,78.5,74.3,29.77,WSW,255,0.0,1.0,87,0.00,RA,,0.01,WeatherDisplay:10.37,2013-01-18 13:45:00,
2013-01-18 23:50:00,78.4,74.2,29.77,WSW,249,0.0,2.0,87,0.00,RA,,0.01,WeatherDisplay:10.37,2013-01-18 13:50:00,
2013-01-18 23:55:00,78.4,74.2,29.77,SW,232,0.0,2.0,87,0.00,RA,,0.01,WeatherDisplay:10.37,2013-01-18 13:55:00,